www.pogodaiklimat.ru

Архив погоды в Братиславе (Словакия)

Время
(UTC), дата
01 14.10
02 14.10
03 14.10
04 14.10
05 14.10
06 14.10
07 14.10
08 14.10
09 14.10
10 14.10
11 14.10
12 14.10
13 14.10
14 14.10
15 14.10
16 14.10
17 14.10
18 14.10
19 14.10
20 14.10
21 14.10
22 14.10
23 14.10
00 15.10
01 15.10
02 15.10
03 15.10
04 15.10
05 15.10
06 15.10
07 15.10
08 15.10
09 15.10
10 15.10
11 15.10
12 15.10
13 15.10
14 15.10
15 15.10
16 15.10
17 15.10
18 15.10
19 15.10
20 15.10
21 15.10
22 15.10
23 15.10
00 16.10
01 16.10
02 16.10
03 16.10
04 16.10
05 16.10
06 16.10
07 16.10
08 16.10
09 16.10
10 16.10
11 16.10
12 16.10
13 16.10
14 16.10
15 16.10
16 16.10
17 16.10
18 16.10
19 16.10
20 16.10
21 16.10
22 16.10
23 16.10
00 17.10
01 17.10
02 17.10
03 17.10
04 17.10
05 17.10
06 17.10
07 17.10
08 17.10
09 17.10
10 17.10
11 17.10
12 17.10
13 17.10
14 17.10
15 17.10
16 17.10
17 17.10
18 17.10
19 17.10
20 17.10
21 17.10
22 17.10
23 17.10
00 18.10
01 18.10
02 18.10
03 18.10
04 18.10
05 18.10
06 18.10
07 18.10
08 18.10
09 18.10
10 18.10
11 18.10
12 18.10
13 18.10
14 18.10
15 18.10
16 18.10
17 18.10
18 18.10
19 18.10
20 18.10
21 18.10
22 18.10
23 18.10
00 19.10
01 19.10
02 19.10
03 19.10
04 19.10
05 19.10
06 19.10
07 19.10
08 19.10
09 19.10
10 19.10
11 19.10
12 19.10
13 19.10
14 19.10
15 19.10
16 19.10
17 19.10
18 19.10
19 19.10
20 19.10
21 19.10
22 19.10
23 19.10
00 20.10
01 20.10
02 20.10
03 20.10
04 20.10
05 20.10
06 20.10
07 20.10
08 20.10
09 20.10
10 20.10
11 20.10
12 20.10
13 20.10
14 20.10
15 20.10
16 20.10
17 20.10
18 20.10
19 20.10
20 20.10
21 20.10
22 20.10
23 20.10
00 21.10
Ветер
(напр.,м/с)
Видим. Явления Облачность Т
(С)
Тd
(С)
f
(%)
Тe
(С)
Тes
(С)
Комфортность P
(гПа)
Po
(гПа)
Тmin
(С)
Tmax
(С)
R
(мм)
R24
(мм)
S
(см)
50 км 4/0
[Ac lent]
+6.2 +2.3 76 1024.4 1007.8
С 3 50 км 6/0
[Ac lent]
+5.4 +2.0 79 +2 +2 тепло 1024.5 1007.9
З 2 50 км 4/1 600 м
[Cu hum Ac lent]
+5.2 +2.0 80 +3 +3 прохладно 1024.8 1008.2
З 5 50 км 3/0
[Ac lent]
+5.3 +1.6 77 +1 +1 прохладно 1025.0 1008.3
З 4 50 км 3/0
[Ac lent Ci fib]
+5.3 +1.6 77 +1 +1 по сезону 1025.3 1008.6
нст 1 40 км 4/0
[Ac cast Ci fib]
+4.8 +1.5 79 +4 +4 по сезону 1025.8 1009.1 +4.4 0.5
ЮЗ 2 40 км 6/1 600 м
[Cu hum Ac lent Ci sp]
+6.8 +2.3 73 +5 +5 по сезону 1026.1 1009.5
З 4 40 км 6/0
[Ac lent Ci sp]
+7.7 +2.6 70 +5 +6 тепло 1026.3 1009.8
З 3 40 км 6/1 800 м
[Cu hum Ac lent Ci sp]
+9.6 +2.9 63 +8 +10 по сезону 1025.9 1009.5
З 5 50 км 5/1 840 м
[Cu med, cong Ac lent Ci sp]
+10.3 +3.4 62 +8 +10 по сезону 1026.0 1009.6
З 4 50 км 6/1 1000 м
[Cu Sc Ac lent Cc]
+11.4 +3.0 56 +9 +12 тепло 1025.6 1009.3
З 5 50 км 4/4 1050 м
[Cu Sc Ac lent Ci sp]
+12.3 +3.5 55 +10 +12 прохладно 1025.2 1009.0
50 км 6/4 1050 м
[Cu Sc Ac lent Ci sp]
+12.3 +3.5 55 1024.6 1008.4
СЗ 3 50 км 6/4 1080 м
[Cu Sc Ac As Ci fib]
+12.2 +4.0 57 +11 +12 по сезону 1024.1 1007.9
З 5 50 км 6/6 1020 м
[Cu Sc Ac lent Ci fib]
+12.1 +3.8 57 +10 +10 по сезону 1024.1 1007.9
З 4 50 км 8/4 1020 м
[Cu Sc Ac As Ci fib]
+10.7 +4.8 67 +8 +8 по сезону 1024.4 1008.1
З 3 40 км 8/1 1350 м
[Sc Ac As]
+10.0 +5.0 71 +8 +8 по сезону 1024.8 1008.4
З 4 40 км 9/9 1260 м
[Sc]
+9.8 +5.4 74 +7 +7 по сезону 1024.9 1008.5 +12.8
40 км 9/9 1080 м
[Sc]
+9.8 +5.6 75 1024.9 1008.5
З 2 40 км 9/9 1200 м
[Sc]
+9.7 +5.5 75 +8 +8 по сезону 1024.8 1008.4
нст 1 30 км 9/9 1200 м
[Sc]
+9.2 +5.8 79 +9 +9 по сезону 1024.8 1008.4
штиль 0 30 км 9/9 1260 м
[Sc]
+9.2 +5.9 80 +9 +9 тепло 1024.4 1008.0
штиль 0 30 км 9/8 1170 м
[Sc Ac lent]
+8.4 +5.7 83 +8 +8 тепло 1024.1 1007.7
ЮЗ 2 25 км 9/9 750 м
[Sc]
+8.7 +6.3 85 +7 +7 по сезону 1023.9 1007.5
ЮВ 2 20 км 9/9 750 м
[Sc]
+8.7 +6.8 88 +7 +7 по сезону 1023.8 1007.4
Ю 1 20 км 9/9 840 м
[Sc]
+8.8 +6.8 87 +8 +8 тепло 1023.2 1006.8
ЮЗ 2 20 км 9/9 900 м
[Sc]
+8.5 +6.8 89 +7 +7 по сезону 1022.9 1006.5
20 км 9/9 840 м
[Sc]
+8.3 +6.6 89 1022.7 1006.3
В 1 20 км 9/9 800 м
[Sc]
+8.2 +6.5 89 +7 +7 тепло 1022.6 1006.2
нст 1 20 км 9/9 180 м
[Sc]
+8.4 +6.5 88 +8 +8 по сезону 1022.3 1005.9 +7.8
В 2 20 км 9/9 150 м
[Sc]
+8.4 +6.5 88 +6 +7 по сезону 1022.2 1005.8
20 км 9/9 210 м
[Sc]
+8.7 +6.8 88 1022.2 1005.8
СВ 3 12 км 9/9 210 м
[Sc]
+8.9 +6.5 85 +6 +7 прохладно 1022.4 1006.0
СВ 3 15 км 9/8 420 м
[Cu Sc Ac lent]
+10.4 +7.3 81 +8 +9 по сезону 1021.9 1005.6
В 3 20 км 8/6 500 м
[Cu Sc Ac lent Ci fib]
+11.5 +6.8 73 +10 +11 тепло 1021.2 1005.0
В 3 25 км 5/5 750 м
[Cu hum]
+12.8 +6.8 67 +12 +14 по сезону 1020.0 1003.9
ЮВ 4 30 км 6/6 900 м
[Cu hum]
+13.6 +6.9 64 +12 +13 по сезону 1019.3 1003.2
ЮВ 4 30 км 8/3 900 м
[Cu hum Ac lent]
+13.2 +7.0 66 +12 +12 по сезону 1019.2 1003.1
ЮВ 4 30 км 8/1 1230 м
[Cu hum Ac trans]
+13.0 +6.4 64 +11 +12 по сезону 1019.0 1002.9
В 2 30 км 8/0
[Ac trans]
+12.2 +7.3 72 +11 +11 по сезону 1019.0 1002.9
В 2 30 км 9/0
[Ac As Ci fib]
+11.9 +7.2 73 +11 +11 тепло 1019.1 1002.9
ЮВ 2 30 км 8/3 1500 м
[Sc Ac trans]
+10.6 +7.1 79 +9 +9 по сезону 1019.0 1002.8 +14.2
30 км 8/1 1500 м
[Sc Ac trans Ci fib]
+9.7 +6.4 80 1019.0 1002.7
С 3 25 км 8/0
[Ac trans Ci sp]
+7.9 +5.9 87 +5 +5 по сезону 1019.0 1002.6
СВ 1 25 км 8/0 2000 м
[Ac trans Cc]
+7.4 +6.2 92 +6 +6 по сезону 1019.3 1002.9
20 км 8/0
[Ac As Ci fib]
+7.7 +6.2 90 1019.3 1002.9
С 1 15 км 6/3 1500 м
[Sc Ac lent Ci fib]
+6.9 +5.5 91 +6 +6 по сезону 1019.2 1002.8
С 2 15 км 8/1 1440 м
[Sc Ac lent]
+6.5 +5.3 92 +4 +4 по сезону 1019.5 1003.0
С 2 15 км 6/0
[Ac lent]
+6.6 +5.2 91 +4 +4 по сезону 1019.3 1002.8
15 км 8/0
[Ac lent]
+5.7 +4.6 93 1019.4 1002.9
нст 1 15 км 9/3 1500 м
[Sc Ac As]
+6.8 +5.4 91 +6 +6 по сезону 1019.4 1002.9
15 км 9/0
[Ac As]
+7.4 +5.7 89 1019.9 1003.5
Ю 1 15 км 6/4 1500 м
[Sc Ac As]
+7.0 +5.5 90 +6 +6 тепло 1020.2 1003.7
Ю 1 10 км туман на расстоянии 3/1 600 м
[Sc Ac As Ci fib]
+5.2 +4.0 92 +4 +4 по сезону 1020.8 1004.2 +5.3
З 2 15 км 1/1 600 м
[Sc Ac lent Ci fib]
+9.5 +6.6 82 +8 +9 тепло 1021.2 1004.9
СЗ 2 25 км 1/1 600 м
[Sc Ac lent Ci fib]
+12.6 +6.9 68 +12 +14 тепло 1021.2 1005.1
С 3 25 км 4/4 750 м
[Cu hum Ac lent Ci fib]
+13.0 +7.0 67 +12 +14 тепло 1021.5 1005.4
СЗ 4 35 км 4/4 900 м
[Cu hum Ac lent Ci fib]
+13.5 +5.9 60 +12 +14 тепло 1021.7 1005.6
СЗ 4 50 км 1/1 1050 м
[Cu hum Ac lent Ci fib]
+13.6 +4.8 55 +12 +16 тепло 1021.5 1005.4
СЗ 5 60 км 1/1 1140 м
[Cu hum Ci fib]
+14.6 +3.1 46 +13 +16 по сезону 1020.8 1004.8
СЗ 4 60 км 1/1 1300 м
[Cu hum Ci fib]
+14.9 +3.4 46 +14 +16 тепло 1020.5 1004.5
СЗ 5 60 км 1/1 1350 м
[Cu hum Ci fib]
+14.7 +3.2 46 +13 +14 тепло 1020.3 1004.3
СЗ 5 60 км 1/1 1350 м
[Sc diur, vesp Ci fib]
+14.1 +4.1 51 +13 +13 тепло 1020.5 1004.4
СЗ 3 60 км 1/1 1350 м
[Sc diur, vesp Ci fib]
+11.9 +3.9 58 +11 +11 тепло 1020.9 1004.7
СЗ 4 50 км 1/0
[Ci fib]
+11.0 +3.8 61 +9 +9 тепло 1021.5 1005.2
СЗ 2 50 км ясно +9.1 +3.7 69 +8 +8 по сезону 1022.0 1005.6 +15.1
СЗ 3 50 км ясно +10.3 +3.4 62 +8 +8 по сезону 1021.9 1005.6
50 км ясно +6.2 +3.4 82 1022.4 1005.8
50 км ясно +5.5 +2.5 81 1022.6 1006.0
50 км ясно +5.0 +2.2 82 1022.5 1005.9
ЮЗ 2 30 км ясно +5.6 +2.8 82 +3 +3 по сезону 1022.3 1005.7
ЮЗ 1 30 км ясно +3.1 +0.3 82 +2 +2 по сезону 1022.6 1005.9
З 1 30 км ясно +3.4 +1.8 89 +2 +2 по сезону 1022.8 1006.1
штиль 0 30 км ясно +2.1 +0.9 92 +1 +1 по сезону 1022.7 1005.9
нст 1 30 км местами туман поземный 1/1 60 м
[St]
+2.1 +1.1 93 0 0 прохладно 1022.6 1005.8
СВ 1 30 км ясно +1.4 +0.5 94 -1 -1 по сезону 1022.8 1005.9
штиль 0 1000 м туман на расстоянии 1/0
[Ci fib]
+1.5 +0.5 93 0 0 по сезону 1022.8 1006.0
СЗ 1 30 км местами туман поземный 3/0
[Ac lent Ci fib]
+1.4 -0.0 90 -1 -1 прохладно 1023.6 1006.7 +0.9
штиль 0 30 км 4/1 1500 м
[Sc Ac lent Ci fib]
+5.4 +2.8 83 +4 +5 по сезону 1023.7 1007.1
СВ 2 30 км 4/1 1500 м
[Sc Ac lent Ci fib]
+6.9 +3.0 76 +5 +7 тепло 1023.7 1007.2
нст 2 30 км 4/1 1500 м
[Sc Ac lent Ci fib]
+8.9 +3.9 71 +7 +10 по сезону 1023.6 1007.2
30 км 3/1 720 м
[Cu hum Ac lent Ci fib]
+10.3 +4.7 68 1023.5 1007.2
30 км 4/1 800 м
[Cu hum Ac lent Ci fib]
+12.3 +4.5 59 1022.9 1006.7
нст 1 40 км 3/1 1000 м
[Cu hum Ci fib]
+13.2 +4.9 57 +14 +19 тепло 1022.3 1006.2
Ю 2 40 км 4/1 1080 м
[Cu hum Ac lent Ci fib]
+13.6 +3.4 50 +13 +16 тепло 1021.8 1005.7
40 км 4/1 1260 м
[Cu hum Ac lent Ci fib]
+14.2 +3.4 48 1021.6 1005.5
Ю 2 40 км 4/1 1260 м
[Cu hum Ac lent Ci fib]
+13.5 +4.6 55 +13 +13 тепло 1021.3 1005.2
Ю 2 40 км 4/0
[Ac lent Ci fib]
+11.0 +4.5 64 +10 +10 тепло 1021.8 1005.5
СЗ 2 25 км 3/0
[Ac lent Ci fib]
+10.1 +5.5 73 +9 +9 тепло 1022.3 1006.0
СВ 2 25 км 3/0
[Ac lent Ci fib]
+7.3 +4.4 82 +5 +5 по сезону 1022.8 1006.3 +14.3
штиль 0 25 км 4/0
[Ac trans Ci fib]
+7.3 +4.8 84 +6 +6 по сезону 1022.9 1006.4
СВ 2 20 км 9/9 1470 м
[Sc Ci fib]
+5.2 +3.7 90 +3 +3 по сезону 1023.2 1006.6
С 2 20 км 9/9 1500 м
[Sc]
+6.3 +4.6 89 +4 +4 по сезону 1023.6 1007.0
С 1 20 км 9/9 1500 м
[Sc]
+6.6 +4.8 88 +6 +6 по сезону 1023.5 1007.0
С 2 20 км 9/9 1500 м
[Sc]
+6.8 +4.6 86 +5 +5 тепло 1023.7 1007.2
штиль 0 20 км 9/9 1500 м
[Sc]
+7.1 +4.8 85 +6 +6 по сезону 1023.8 1007.3
20 км 6/6 1500 м
[Sc Ci fib]
+6.7 +4.5 86 1023.9 1007.4
ЮВ 1 20 км 6/6 1500 м
[Sc]
+4.9 +3.6 91 +4 +4 тепло 1024.0 1007.3
нст 1 20 км 9/9 1500 м
[Sc]
+5.9 +3.9 87 +5 +5 по сезону 1024.0 1007.4
15 км 9/6 1500 м
[Sc Cs]
+5.9 +4.5 91 1024.4 1007.8
СЗ 2 30 км 9/5 1500 м
[Sc Ac lent Cs]
+6.6 +3.6 81 +4 +4 тепло 1024.9 1008.3
З 4 30 км 9/0 2000 м
[Ac trans Cs]
+7.9 +3.9 76 +5 +5 по сезону 1025.1 1008.6 +4.8
СЗ 2 30 км 9/1 660 м
[Cu Sc Ac lent Cs]
+9.2 +3.8 69 +8 +8 тепло 1025.8 1009.4
35 км 9/8 1470 м
[Sc Ac lent Cs]
+11.2 +3.7 60 1026.4 1010.1
СЗ 3 40 км 9/9 1410 м
[Sc Ac lent Ci sp]
+11.3 +2.8 56 +10 +10 тепло 1026.9 1010.6
СЗ 3 35 км 9/9 1440 м
[Sc]
+12.2 +3.7 56 +11 +11 тепло 1027.2 1010.9
45 км 9/8 1020 м
[Cu Sc Ac trans]
+12.9 +4.4 56 1027.1 1010.9
нст 2 45 км 9/9 1080 м
[Cu Sc]
+13.6 +4.2 53 +13 +14 тепло 1026.7 1010.5
СЗ 5 40 км 9/8 1380 м
[Cu Sc Ac lent]
+13.7 +4.0 52 +12 +12 тепло 1026.5 1010.3
СЗ 3 40 км 8/6 1500 м
[Cu Sc Ac lent Ci fib]
+14.1 +5.0 54 +13 +14 тепло 1026.8 1010.6
нст 2 50 км 8/8 1500 м
[Cu Sc Ac lent Ci fib]
+13.7 +4.3 53 +13 +13 тепло 1027.0 1010.8
50 км 8/8 1500 м
[Sc Ac lent Ci fib]
+13.1 +4.5 56 1027.3 1011.1
С 1 50 км 3/0
[Ac lent Ci fib]
+10.8 +4.5 65 +11 +11 тепло 1027.7 1011.3
нст 1 40 км 3/0
[Ci fib]
+8.4 +5.2 80 +8 +8 по сезону 1028.0 1011.5 +14.1
СЗ 1 30 км 1/0
[Ci fib]
+7.7 +4.8 82 +7 +7 тепло 1028.2 1011.7
25 км 1/0
[Ci fib]
+5.8 +4.1 89 1028.8 1012.1
СВ 2 25 км 1/0
[Ci fib]
+4.6 +2.8 88 +2 +2 по сезону 1029.1 1012.3
СЗ 1 25 км 4/0
[Ci fib]
+6.2 +4.5 89 +5 +5 по сезону 1029.2 1012.5
С 1 20 км 4/0
[Ci fib]
+4.9 +3.9 93 +3 +3 тепло 1029.0 1012.3
СВ 1 20 км 4/0
[Ci fib]
+4.7 +3.0 89 +3 +3 по сезону 1028.7 1012.0
С 2 20 км 3/0
[Ci fib]
+4.7 +3.4 91 +2 +2 по сезону 1029.5 1012.7
С 1 20 км 4/0
[Ac lent Ci fib]
+3.8 +2.9 94 +2 +2 тепло 1028.9 1012.1
В 2 1800 м туман на расстоянии 6/0
[Ac lent Ci fib]
+3.3 +2.1 92 0 0 по сезону 1028.7 1011.9
С 1 2500 м туман на расстоянии 4/0
[Ac lent Ci fib]
+3.1 +2.5 96 +1 +1 по сезону 1028.8 1012.0
СВ 4 10 км местами туман поземный 3/1 300 м
[St Ac lent]
+3.1 +2.4 95 -2 -2 по сезону 1028.7 1011.9
СВ 3 6000 м местами туман поземный 4/1 270 м
[St Ci fib]
+3.9 +3.2 95 -0 -0 по сезону 1029.1 1012.3 +2.0
СВ 4 4200 м местами туман поземный 8/5 60 м
[St Ci fib]
+5.6 +5.0 96 +1 +2 по сезону 1029.2 1012.5
СВ 3 5000 м дымка 9/5 90 м
[St Ci sp]
+6.2 +5.2 93 +3 +4 тепло 1029.0 1012.3
СВ 4 10 км 9/3 210 м
[St Ac lent Ci sp]
+7.7 +6.0 89 +4 +5 по сезону 1028.6 1012.0
СВ 2 15 км 8/0
[Ac lent Cc]
+9.5 +6.2 80 +8 +12 тепло 1028.6 1012.2
СВ 3 15 км 4/0
[Cc]
+10.8 +6.6 75 +9 +13 тепло 1028.3 1011.9
нст 1 15 км 5/0
[Ci fib]
+13.7 +7.9 68 +14 +19 тепло 1027.3 1011.1
Ю 3 20 км 6/0
[Ci fib]
+15.4 +7.2 58 +15 +17 тепло 1026.4 1010.3
ЮВ 3 25 км 9/0
[Ac lent Ci fib]
+15.5 +7.5 59 +15 +16 тепло 1026.1 1010.0
ЮВ 3 30 км 9/0
[Ac lent Ci fib]
+14.1 +8.5 69 +13 +13 тепло 1025.9 1009.8
ЮВ 3 25 км 8/0
[Ac lent Ci fib]
+11.7 +7.0 73 +10 +10 тепло 1026.0 1009.7
25 км 8/0
[Ac lent Ci fib]
+10.9 +6.6 75 1026.3 1010.0
С 2 25 км 4/0
[Ac lent Ci fib]
+10.5 +7.0 79 +9 +9 тепло 1026.6 1010.2 +15.7
С 2 20 км 8/0
[Ac lent Ci sp]
+8.0 +6.3 89 +6 +6 тепло 1026.4 1009.9
30 км 8/0
[Ac und Ci fib]
+7.4 +5.9 90 1026.2 1009.7
С 1 20 км 9/0
[Ac lent Cs]
+7.6 +6.1 90 +7 +7 тепло 1026.2 1009.7
С 2 20 км 9/0
[Ac As]
+8.0 +6.5 90 +6 +6 тепло 1025.9 1009.4
СВ 2 20 км 9/0
[Ac As]
+8.6 +6.9 89 +7 +7 тепло 1025.4 1009.0
С 2 20 км 9/0 2000 м
[Ac As]
+8.8 +7.1 89 +7 +7 по сезону 1025.4 1009.0
С 2 20 км 9/0
[Ac As]
+9.0 +7.1 88 +7 +7 тепло 1024.9 1008.5
СВ 3 30 км 9/0
[Ac As]
+9.0 +7.0 87 +6 +6 тепло 1024.2 1007.8
СВ 2 30 км 9/9 1500 м
[Sc Ac lent]
+9.1 +6.9 86 +7 +7 по сезону 1024.1 1007.7
СВ 4 30 км 9/9 1500 м
[Sc]
+9.2 +7.0 86 +6 +6 тепло 1023.6 1007.2
СВ 4 20 км 8/6 1500 м
[Sc Ac lent Ci fib]
+9.3 +6.9 85 +6 +6 тепло 1023.2 1006.8
СВ 3 15 км 8/3 600 м
[Sc Ac lent Ci sp]
+8.7 +6.8 88 +6 +6 по сезону 1023.0 1006.6 +6.8
СВ 4 15 км 6/1 540 м
[Sc Ac lent Ci sp]
+10.7 +7.4 80 +8 +9 тепло 1023.1 1006.8
В 4 17 км 3/1 600 м
[Sc Ac lent Ci sp]
+11.7 +7.4 75 +10 +11 тепло 1022.8 1006.6
В 4 18 км 3/1 1500 м
[Sc Ac lent Ci sp]
+13.4 +8.5 72 +12 +14 тепло 1021.9 1005.8
В 5 18 км 1/1 1500 м
[Sc Ac lent Ci sp]
+15.1 +8.8 66 +14 +16 тепло 1021.1 1005.1
ЮВ 5 25 км 1/0
[Ci sp]
+16.9 +8.8 59 +16 +19 тепло 1019.9 1004.0
ЮВ 7 35 км 3/0
[Ac lent Ci sp]
+18.2 +7.6 50 +18 +19 тепло 1018.2 1002.4
ЮВ 7 35 км 4/0
[Ci fib]
+19.0 +7.8 48 +19 +20 тепло 1017.0 1001.3
ЮВ 7 35 км 8/0
[Ac lent Ci fib]
+19.2 +7.0 45 +19 +20 тепло 1016.2 1000.5
ЮВ 5 35 км 9/0
[Ci fib]
+18.0 +7.4 50 +18 +18 тепло 1015.8 1000.0
ЮВ 5 35 км 9/0
[Ci sp]
+16.4 +7.4 55 +16 +16 тепло 1015.4 999.6
В 5 30 км 8/0
[Ci fib]
+14.6 +7.4 62 +13 +13 тепло 1014.8 998.9
В 6 30 км 8/0
[Ci fib]
+14.9 +6.7 58 +13 +13 тепло 1014.3 998.4 +19.8
В 4 30 км 8/0
[Ci fib]
+13.1 +6.7 65 +12 +12 тепло 1014.0 998.0
30 км 5/0
[Ci fib]
+11.0 +6.2 72 1013.8 997.7
С 3 30 км 6/0
[Ci fib]
+10.4 +6.7 78 +8 +8 по сезону 1013.0 996.9
СВ 3 30 км 6/0
[Ci fib]
+9.7 +6.8 82 +7 +7 тепло 1012.6 996.4
СВ 3 30 км 8/0
[Cs]
+9.6 +7.0 84 +7 +7 тепло 1012.0 995.8
С 4 25 км 6/0
[Ci sp]
+9.3 +7.1 86 +6 +6 по сезону 1011.1 994.9
Местоположение метеостанции Братислава (Словакия): широта 48.17 долгота 17.21 высота над уровнем моря 134 м.
В архиве по умолчанию представлена погода в Братиславе за последнюю неделю. Архивные данные за месяц целиком и за предыдущие месяцы, начиная с января 2011 года, Вы можете получить, выбрав интересующий диапазон дат из раскрывающегося списка и нажав кнопку "Найти!".
*Определитесь, кто Вы:
Внимание! Время в таблицах - всемирное. Для получения местного времени необходимо прибавить поправку, которая равна 1 ч.
Смотрите также архив погоды в соседних городах и на ближайших метеорологических станциях:
Партнеры нашего сайта:      
Пояснения к столбцам:
  • Ветер - указаны скорость ветра в м/с - средняя за 10 мин, порывы в срок и между сроками (в фигурных скобках) и направление, откуда дует ветер: С - северный,
  • СВ - северо-восточный, В - восточный, ЮВ - юго-восточный, Ю - южный, ЮЗ - юго-западный, З - западный, СЗ - северо-западный.
  • Видимость - горизонтальная дальность видимости в метрах или километрах. При видимости от 1 до 10 км при отсутствии осадков обычно наблюдается дымка, при ухудшении видимости до 1 км и менее - туман. В сухую погоду видимость может ухудшаться дымом, пылью или мглою.
  • Явления - указаны атмосферные явления, наблюдавшиеся в срок или в последний час перед сроком; фигурными скобками обозначены явления, наблюдавшиеся между сроками (за 1-3 часа до срока); квадратными скобками обозначены град или гололедные отложения с указанием их диаметра в мм.
  • Облачность - указаны через наклонную черту общая и нижняя облачность в баллах и высота нижней границы облаков в метрах; квадратными скобками обозначены формы облаков: Ci - перистые, Cs - перисто-слоистые, Cc - перисто-кучевые, Ac - высококучевые, As - высокослоистые, Sc - слоисто-кучевые, Ns - слоисто-дождевые, Cu - кучевые, Cb - кучево-дождевые. Подробнее классификацию облаков см. в Атласе облаков (PDF).
  • T - Температура воздуха - температура, измеренная на высоте 2 м над землей.
  • Td - Температура точки росы - температура, при понижении до которой содержащийся в воздухе водяной пар достигнет насыщения.
  • f - Относительная влажность воздуха - влажноcть воздуха, измеренная на высоте 2 м над землей.
  • Te - Эффективная температура - температура, которую ощущает одетый по сезону человек в тени. Характеристика душности погоды. При расчете учитывается влияние влажности воздуха и скорости ветра на теплоощущения человека.
  • Tes - Эффективная температура на солнце - температура, которую ощущает человек, с поправкой на солнечный нагрев. Характеристика знойности погоды. Зависит от высоты солнца над горизонтом, облачности и скорости ветра. Ночью, в пасмурную погоду, а также при ветре 12 м/с и более поправка равна нулю.
  • P - Атмосферное давление - приведенное к уровню моря атмосферное давление.
  • Po - Атмосферное давление - измеренное на уровне метеостанции атмосферное давление.
  • Tmin - Минимальная температура - минимум температуры воздуха на высоте 2 м над землей.
  • Tmax - Максимальная температура - максимум температуры воздуха на высоте 2 м над землей.
  • R - Количество осадков - Количество выпавших осадков за период времени, мм. При наведении курсора мыши на число - период времени, за который выпало указанное количество осадков.
  • R24 - Количество осадков - Количество выпавших осадков за 24 часа, мм.
  • S - Снежный покров - Высота снежного покрова, см. При наведении курсора мыши на число - состояние снежного покрова и степень покрытия местности в баллах.